Home > Weather > West Bromwich > Past weeks

Flag for United Kingdom Past Weather in West Bromwich, England, United Kingdom — Yesterday and Last 2 Weeks

Now
50 °F

Clear.


Feels Like: 47 °F
Forecast: 52 / 64 °F
Wind: 8 mph from Southwest

Location: Birmingham / Airport

Current Time: Jul 2, 2016 at 3:07:40 AM

Latest Report: Jul 2, 2016 at 1:50 AM


Visibility: 10 mi

Pressure: 29.77 "Hg

Humidity: 94%

Dew Point: 48 °F

Location of West BromwichLocation

Past Weather in West Bromwich — Graph

°F

West Bromwich Temperature Yesterday

Maximum temperature yesterday: 64 °F (at 1:20 PM)
Minimum temperature yesterday: 52 °F (at 11:50 PM)
Average temperature yesterday: 58 °F

High & Low Weather Summary for the Past Weeks

 TemperatureHumidityPressure
High70 °F (Jun 20, 3:20 PM)100% (Jun 17, 1:50 AM)30.21 "Hg (Jun 17, 1:50 AM)
Low48 °F (Jun 28, 2:50 AM)40% (Jun 27, 6:20 PM)29.62 "Hg (Jun 29, 12:50 PM)
Average60 °F78%29.94 "Hg
* Reported Jun 17 1:20 AM — Jul 2 1:50 AM, West Bromwich, Weather by CustomWeather, © 2016

Note: Actual official high and low records may vary slightly from our data, if they occured in-between our weather recording intervals... More about our weather records

Advertising

West Bromwich Weather History for the Previous 24 Hours

Scroll right to see more
 ConditionsComfort  
Time TempWeatherWind HumidityBarometerVisibility
1:50 AM
Sat, Jul 2
50 °FClear.8 mph94%29.77 "Hg10 mi
1:20 AM52 °FClear.7 mph88%29.77 "Hg10 mi
12:50 AM52 °FClear.7 mph88%29.77 "Hg10 mi
12:20 AM52 °FPassing clouds.6 mph82%29.77 "HgN/A
11:50 PM
Fri, Jul 1
52 °FPassing clouds.7 mph82%29.77 "HgN/A
11:20 PM54 °FPassing clouds.7 mph77%29.77 "HgN/A
10:50 PM54 °FPassing clouds.7 mph77%29.77 "HgN/A
10:20 PM54 °FPassing clouds.8 mph77%29.74 "HgN/A
9:50 PM55 °FPassing clouds.8 mph72%29.74 "HgN/A
9:20 PM55 °FPassing clouds.8 mph72%29.74 "HgN/A
8:50 PM55 °FScattered showers. Scattered clouds.8 mph77%29.74 "HgN/A
8:20 PM57 °FPassing clouds.9 mph72%29.71 "HgN/A
7:50 PM57 °FPassing clouds.12 mph72%29.71 "HgN/A
7:20 PM57 °FScattered showers. Passing clouds.9 mph77%29.71 "HgN/A
6:50 PM55 °FSprinkles. Broken clouds.15 mph82%29.71 "HgN/A
6:20 PM59 °FScattered clouds.9 mph72%29.71 "HgN/A
5:50 PM57 °FScattered clouds.13 mph77%29.71 "HgN/A
5:20 PM61 °FScattered showers. Scattered clouds.13 mph59%29.71 "HgN/A
4:50 PM63 °FScattered clouds.14 mph59%29.71 "HgN/A
4:20 PM61 °FScattered clouds.15 mph59%29.71 "HgN/A
3:50 PM57 °FScattered clouds.12 mph72%29.71 "HgN/A
3:20 PM63 °FScattered showers. Scattered clouds.13 mph59%29.71 "HgN/A
2:50 PM64 °FScattered showers. Scattered clouds.12 mph49%29.68 "HgN/A
2:20 PM64 °FScattered showers. Scattered clouds.12 mph52%29.71 "HgN/A
1:50 PM64 °FScattered showers. Scattered clouds.13 mph52%29.71 "HgN/A
1:20 PM64 °FScattered clouds.12 mph52%29.71 "HgN/A
12:50 PM63 °FScattered showers. Scattered clouds.10 mph59%29.71 "HgN/A
12:20 PM61 °FScattered showers. Scattered clouds.13 mph63%29.71 "HgN/A
11:50 AM61 °FScattered showers. Scattered clouds.9 mph63%29.74 "HgN/A
11:20 AM61 °FScattered showers. Partly sunny.9 mph63%29.74 "HgN/A
10:50 AM61 °FScattered showers. Broken clouds.8 mph68%29.74 "HgN/A
10:20 AM61 °FScattered clouds.9 mph63%29.74 "HgN/A
9:50 AM61 °FScattered clouds.12 mph68%29.74 "HgN/A
9:20 AM59 °FScattered clouds.9 mph72%29.74 "HgN/A
8:50 AM59 °FPassing clouds.9 mph72%29.74 "HgN/A
8:20 AM59 °FPassing clouds.8 mph72%29.74 "HgN/A
7:50 AM57 °FPassing clouds.8 mph82%29.74 "HgN/A
7:20 AM57 °FPassing clouds.10 mph82%29.74 "HgN/A
6:50 AM57 °FPassing clouds.8 mph82%29.71 "HgN/A
6:20 AM57 °FSunny.9 mph88%29.71 "Hg10 mi
5:50 AM57 °FPassing clouds.7 mph88%29.71 "HgN/A
5:20 AM57 °FPassing clouds.7 mph88%29.71 "HgN/A
4:50 AM57 °FPassing clouds.7 mph88%29.71 "HgN/A
4:20 AM57 °FPartly cloudy.7 mph88%29.71 "HgN/A
3:50 AM57 °FPassing clouds.7 mph94%29.71 "HgN/A
3:20 AM57 °FPassing clouds.7 mph88%29.71 "HgN/A
Weather by CustomWeather, © 2016

See weather overviewHow to use our weather pages